Location: Goheenville
(40.9070°N, 79.3720°W)
Time: 18:03:12
(UTC-05:00)

Daily predictions for brighter satellites

Satellite Brightness Start Highest point End
(mag) Time Altitude Azimuth Time Altitude Azimuth Time Altitude Azimuth
USA 161 2.8 17:20:41 10° NNW 17:22:22 26° WNW 17:24:08 10° SW
CSL-04 Rocket 3.6 17:18:15 10° SSE 17:23:28 65° ENE 17:28:45 10° N
Cosmos 1862 Rocket 3.9 17:21:10 10° SSE 17:25:21 44° E 17:29:36 10° NNE
Meteor 2-10 Rocket 3.9 17:28:32 10° SSW 17:33:41 71° W 17:39:06 10° N
Cosmos 1340 2.7 17:31:16 10° S 17:35:02 87° WNW 17:38:50 10° N
Cosmos 1725 Rocket 4.0 17:31:28 10° S 17:37:45 84° E 17:44:03 10° N
CENTAUR R/B 2.7 17:32:39 10° SW 17:38:39 75° NW 17:45:33 10° NNE
Cosmos 371 Rocket 3.7 17:35:00 10° NNW 17:39:47 68° WSW 17:44:33 10° S
Cosmos 1346 4.4 17:37:53 10° SW 17:39:56 29° WNW 17:42:00 10° NNW
Cosmos 1461 4.0 17:37:33 10° NW 17:42:09 58° WSW 17:46:48 10° SSE
Cosmos 1437 2.6 17:40:51 10° S 17:44:00 70° E 17:47:10 10° NNE
Cosmos 304 Rocket 4.1 17:40:16 10° N 17:44:53 44° ENE 17:49:27 10° SE
Cosmos 468 Rocket 4.0 17:42:11 10° NNW 17:47:24 88° ENE 17:52:32 10° SSE
Meteor 1-14 Rocket 4.3 17:42:22 10° N 17:47:55 52° ENE 17:53:20 10° SSE
Okean 1-7 4.3 17:45:36 10° SE 17:48:50 21° E 17:52:06 10° NE
COSMOS 2406 3.6 17:43:56 10° NNW 17:49:40 73° WSW 17:55:20 10° SSE
ERBS 2.5 17:46:33 10° NW 17:49:53 51° NE 17:53:13 10° ESE
ERS-2 2.7 17:46:36 10° SE 17:49:57 35° ENE 17:53:20 10° N
IRS-1A Rocket 4.3 17:44:28 10° SSE 17:50:13 63° ENE 17:55:53 10° N
Cosmos 1844 Rocket 3.4 17:45:25 10° SW 17:50:57 55° WNW 17:56:29 10° NNE
CZ-2C R/B 3.7 17:47:16 10° NNE 17:51:44 64° ESE 17:56:13 10° S
Tsikada Rocket 4.0 17:46:46 10° N 17:52:57 86° W 17:59:07 10° S
COSMOS 2455 2.9 17:48:36 10° SSW 17:54:37 88° WNW 18:00:41 10° NNE
Cosmos 1782 Rocket 4.4 17:53:03 10° NNE 17:56:43 26° ENE 18:00:22 10° SE
Timation 1 Rocket 4.3 17:52:55 10° SSW 17:58:54 81° ESE 18:04:57 10° NNE
COSMO-SKYMED 1 2.9 17:57:08 10° NNE 18:01:17 42° E 18:05:24 10° S
YAOGAN 1 2.5 17:58:22 10° SSE 18:02:39 66° ENE 18:06:57 10° N
BREEZE-M R/B 2.8 18:02:20 10° NW 18:04:57 43° NNE 18:07:11 21° E
CZ-4 R/B 1.4 18:02:48 10° S 18:06:42 75° W 18:10:33 10° NNW
Cosmos 1763 Rocket 3.4 18:04:00 10° NNW 18:09:14 81° ENE 18:14:22 10° SSE
Meteor 1-26 Rocket 4.3 18:04:23 10° SSW 18:09:59 80° W 18:15:34 10° N
USA 116 4.0 18:05:41 10° N 18:10:18 82° WNW 18:14:20 10° SSW
Cosmos 2221 Rocket 4.3 18:06:33 10° SSE 18:10:27 32° E 18:13:08 17° NE
Centaur D AC-28 4.2 18:07:16 10° SSW 18:11:31 29° SSE 18:21:43 13° E
FENGYUN 3A 4.0 18:08:33 10° SE 18:13:38 43° ENE 18:18:43 10° N
Cosmos 2297 4.3 18:10:40 10° SSE 18:15:47 36° ESE 18:18:48 21° NE
MOS 1 4.2 18:11:02 10° SSE 18:16:41 68° ENE 18:22:21 10° N
ALOS 2.5 18:12:46 10° SE 18:17:11 44° ENE 18:21:38 10° N
Cosmos 1814 Rocket 4.2 18:12:49 10° NNW 18:18:11 77° WSW 18:23:31 10° SSE
Cosmos 1833 Rocket 3.1 18:13:48 10° N 18:19:02 38° ENE 18:23:09 15° ESE
Cosmos 2278 Rocket 2.2 18:17:01 10° SSW 18:22:42 83° WNW 18:28:25 10° NNE
SL-27 R/B 2.4 18:20:31 10° N 18:23:47 51° ENE 18:25:00 32° SE
Cosmos 1503 Rocket 4.3 18:18:54 10° S 18:23:54 45° ESE 18:26:49 23° NE
Cosmos 1703 Rocket 3.5 18:20:06 10° S 18:24:33 75° E 18:29:02 10° N
Centaur D AC-29 4.0 18:22:22 10° WSW 18:25:29 13° SW 18:27:38 10° S
Cosmos 1633 2.4 18:27:36 10° N 18:31:17 69° E 18:34:56 10° SSE
Cosmos 1464 Rocket 3.9 18:26:01 10° S 18:32:00 59° E 18:38:02 10° NNE
Okean 2 Rocket 3.4 18:28:34 10° N 18:32:53 42° ENE 18:37:09 10° SSE
DMSP B5D1-3 4.5 18:31:12 10° NNE 18:36:21 62° ESE 18:41:26 10° S
USA 234 3.2 18:36:48 24° NE 18:41:06 89° WNW 18:47:38 10° SW
Cosmos 540 Rocket 3.4 18:36:31 10° NNW 18:41:40 60° ENE 18:46:03 14° SSE
Cosmos 1606 2.8 18:38:52 10° SSW 18:42:38 74° W 18:45:11 20° N
Cosmos 841 Rocket 3.8 18:37:39 10° NNW 18:42:55 69° WSW 18:48:07 10° S
EO 1 Del DPAF 3.8 18:41:40 12° N 18:45:10 56° WNW 18:48:54 10° SSW
SKYMED 2 4.2 18:45:05 10° N 18:49:20 55° WNW 18:53:33 10° SSW
Meteor 2-6 Rocket 4.0 18:44:18 10° S 18:49:41 79° E 18:55:15 10° NNE
Atlas 2A Centaur Rocket 4.4 18:37:00 10° WSW 18:50:22 27° SSW 18:53:42 16° SSE
Cosmos 1782 3.2 18:46:29 10° SSW 18:50:28 62° W 18:53:34 16° N
SPOT 3 Rocket 3.8 18:49:44 10° S 18:54:56 68° WSW 19:00:09 10° NNW
BREEZE-M DEB (TANK) 3.6 18:55:22 10° WSW 18:56:41 33° W 18:56:41 33° W
Cosmos 1354 Rocket 4.0 18:55:53 10° SSW 19:01:11 84° WNW 19:03:32 34° NNE
CZ-4C R/B 3.3 18:54:59 10° NNW 19:01:38 41° NE 19:02:17 40° ENE
Lacrosse 5 4.1 18:59:31 10° NW 19:02:02 13° N 19:03:04 13° N
Cosmos 2082 Rocket 2.0 18:57:11 10° NNW 19:02:54 83° ENE 19:05:55 29° SSE
NOAA 12 4.5 18:59:20 10° S 19:04:36 65° WSW 19:09:54 10° NNW
FengYun 1-2 T 4.1 19:03:36 28° SSE 19:06:34 70° ENE 19:12:07 10° N
Cosmos 405 Rocket 4.2 19:08:02 10° SSW 19:10:02 29° SSW 19:10:02 29° SSW
Cosmos 44 Rocket 4.2 19:07:20 10° NNW 19:10:24 36° N 19:10:24 36° N
Meteor 1-27 Rocket 3.7 19:07:42 10° S 19:13:34 80° E 19:15:39 43° NNE
Meteor 2-20 Rocket 4.2 19:11:27 10° N 19:17:33 70° E 19:17:34 70° E
Thor Agena Rocket 3.9 19:30:42 59° SW 19:30:42 59° SW 19:34:52 10° SSW
Nadezhda 4 Rocket 4.2 19:42:37 10° NNW 19:48:40 64° W 19:54:40 10° S
Meteor 1-11 Rocket 4.5 19:45:24 10° NNW 19:51:05 52° W 19:53:03 36° SW
Cosmos 1833 Rocket 4.3 19:57:58 10° NW 20:02:48 30° WSW 20:05:02 23° SW
USA 234 4.5 20:24:09 33° NW 20:24:09 33° NW 20:29:20 10° W
CZ-4C R/B 4.1 20:43:24 10° NW 20:47:31 35° WNW 20:47:31 35° WNW
